Aérodrome :
LOGIN :

S'inscrire | Disclaimer

   EN    FR    IT 

 










Légende :    VFR   VFR Marginal   IFR   IFR Intensif   IFR Très Intensif
Visi : 
Plafond : 
>= 8 km
>= 3000ft
5 à 8 km
1000 à 3000 ft
1500m à 5 km
500 à 1000 ft
800 à 1500m
200 à 500 ft
< 800m
< 200 ft
Symboles :   Orages  Brouillard  Fortes neiges  Fortes précipitations  Vent > 20 kt
SIGMETs :   Divers  Orages  Givrage  Turbulence  Onde Orograph.  Cendres Volcan.







- Altitude de l'aérodrome : 102 ft
- Code IATA : KEL


EDHK - Holtenau

DERNIER METAR :
  • 171220Z 19006KT CAVOK 22/12 Q1018

METARs EXPIRÉS :
  • 171150Z 20005KT 170V260 CAVOK 22/12 Q1018
  • 171120Z 18005KT 150V230 CAVOK 21/12 Q1018
  • 171020Z 21005KT 170V260 CAVOK 20/13 Q1019
  • 170950Z 23005KT 180V260 CAVOK 20/13 Q1019

TAF TAF EDHK
Valide du 17 à 12h jusqu'au 17 à 18h UTC


171100Z 1712/1718 22005KT 8000 NSC
BECMG 1713/1716 30005KT
Pas de NOTAMs connus pour ce terrain.



MET'MAP, la Météo Aéronautique d'un coup d'oeil ! - Copyright ORBIFLY Décembre 2007 - Disclaimer

ORBIFLY MET'MAP TEAM :

Programmation & Développement : Alexandra Zaïnal
Conception & Développement : Baudouin d'Aumeries
Co-Programmation & Développement : Marc-Olivier Méhu
Soutien technique & logistique : Manuel Goepfert

Contact : metmap@orbifly.com




SOURCES & CREDITS :

   NOAA